This demonstration page uses our WeatherBlox Daily Observations layout. Learn more.

Left ArrowRight Arrow

41.12389, -100.76542

Hourly Observations for January 18, 2018

Temp ( °F °C ) Dew Point ( °F °C ) Humidity (%) Winds ( mph kmh ) Pressure ( in mb ) Visibility ( mi km ) Precip ( " mm )
12:53 am 00:53 Clear 16 -8.9 11 -11.7 80 80 NW 5 7 30.27 1025 10 16 0.00 0.00
1:53 am 01:53 Clear 15 -9.4 10 -12.2 80 80 WNW 6 9 30.25 1025 10 16 0.00 0.00
2:53 am 02:53 Clear 14 -10 11 -11.7 88 88 NW 5 7 30.22 1024 10 16 0.00 0.00
3:53 am 03:53 Clear 13 -10.6 9 -12.8 84 84 NW 3 6 30.19 1022 10 16 0.00 0.00
4:53 am 04:53 Clear 14 -10 10 -12.2 84 84 NW 5 7 30.17 1022 10 16 0.00 0.00
5:53 am 05:53 Clear 15 -9.4 10 -12.2 80 80 NW 5 7 30.16 1021 10 16 0.00 0.00
6:53 am 06:53 Clear 14 -10 10 -12.2 84 84 Calm 30.15 1021 10 16 0.00 0.00
7:53 am 07:53 Clear 15 -9.4 11 -11.7 84 84 NW 3 6 30.14 1021 10 16 0.00 0.00
8:53 am 08:53 Sunny 22 -5.6 17 -8.3 82 82 NW 5 7 30.14 1021 10 16 0.00 0.00
9:53 am 09:53 Sunny 29 -1.7 23 -5 78 78 WNW 6 9 30.14 1021 10 16 0.00 0.00
10:53 am 10:53 Sunny 35 1.7 25 -3.9 67 67 W 8 13 30.12 1020 10 16 0.00 0.00
11:53 am 11:53 Sunny 40 4.4 25 -3.9 55 55 W 9 15 30.08 1019 10 16 0.00 0.00
12:53 pm 12:53 Sunny 43 6.1 27 -2.8 53 53 W 9 15 30.05 1018 10 16 0.00 0.00
1:53 pm 13:53 Sunny 46 7.8 28 -2.2 50 50 W 10 17 30.01 1016 10 16 0.00 0.00
2:53 pm 14:53 Sunny 47 8.3 29 -1.7 50 50 W 8 13 29.98 1015 10 16 0.00 0.00
3:53 pm 15:53 Sunny 47 8.3 30 -1.1 52 52 WSW 6 9 29.97 1015 10 16 0.00 0.00
4:53 pm 16:53 Sunny 44 6.7 31 -0.6 60 60 W 3 6 29.99 1016 10 16 0.00 0.00
5:53 pm 17:53 Clear 37 2.8 28 -2.2 70 70 Calm 29.98 1015 10 16 0.00 0.00
6:53 pm 18:53 Clear 33 0.6 26 -3.3 75 75 Calm 29.99 1016 10 16 0.00 0.00
7:53 pm 19:53 Clear 29 -1.7 24 -4.4 82 82 Calm 30.00 1016 10 16 0.00 0.00
8:53 pm 20:53 Clear 30 -1.1 26 -3.3 85 85 Calm 29.96 1015 10 16 0.00 0.00
9:53 pm 21:53 Clear 27 -2.8 23 -5 85 85 Calm 29.95 1014 10 16 0.00 0.00
10:53 pm 22:53 Clear 27 -2.8 23 -5 85 85 WNW 6 9 29.93 1013 10 16 0.00 0.00
11:53 pm 23:53 Clear 26 -3.3 23 -5 88 88 NW 6 9 29.91 1013 10 16 0.00 0.00

Powered by AerisWeather